Torna al catalogo

SL-16 DEB

AttivoLEO
NORAD 19125·DEBRIS·🇷🇺 Russia

Lanciato May 15, 1988 da Baikonur Cosmodrome

Loading…

Prossimi Passaggi (prossime 24 ore)

TLE

AggiornatoSource: Space-Track

Epoca: Sep 14, 2026, 10:12 UTC

1 19125U 88039C   26257.42552229  .00000036  00000-0  67704-4 0  9996
2 19125  71.0326 168.3505 0177408 170.5510 189.9008 13.79702686928488

Traccia SL-16 DEB in tempo reale con AllMySat

Download on the App Store